Location: Sungai Bunut
(2.6333°N, 113.7333°E)
Time: 18:30:04
(UTC+00:00)

Transit 4A - Pass Details

Date: 09 December 2023
Orbit: 870 x 973 km, 66.8° (Epoch: 04 March)

Event Time Altitude Azimuth Distance (km) Brightness Sun altitude
Rises 22:42:34 0° 316° (NW) 3,476 10.3 4.7°
Reaches altitude 10° 22:45:32 10° 302° (WNW) 2,527 9.6 5.4°
Maximum altitude 22:50:04 23° 251° (WSW) 1,749 9.0 6.5°
Drops below altitude 10° 22:54:35 10° 199° (SSW) 2,512 10.3 7.5°
Sets 22:57:33 0° 185° (S) 3,451 11.1 8.2°
